Home   Weather   Liberia   Past weeks

Flag for Costa Rica Past Weather in Liberia, Costa Rica — Yesterday and Last 2 Weeks

Now
79 °F

Passing clouds.


Feels Like: 82 °F
Forecast: 77 / 91 °F
Wind: 3 mph from East

Location: Liberia/Tomas Guard

Current Time: Apr 25, 2017 at 10:20:39 pm

Latest Report: Apr 25, 2017 at 10:00 pm


Visibility: N/A

Pressure: 29.85 "Hg

Humidity: 84%

Dew Point: 73 °F

Location of LiberiaLocation

Past Weather in Liberia — Graph

°F

Liberia Temperature Yesterday

Maximum temperature yesterday: 97 °F (at 12:00 pm)
Minimum temperature yesterday: 75 °F (at 6:00 am)
Average temperature yesterday: 87 °F

High & Low Weather Summary for the Past Weeks

 TemperatureHumidityPressure
High99 °F (Apr 25, 12:00 pm)94% (Apr 19, 7:00 pm)29.92 "Hg (Apr 19, 7:00 pm)
Low72 °F (Apr 20, 6:00 am)32% (Apr 11, 12:00 pm)29.72 "Hg (Apr 11, 4:00 pm)
Average86 °F59%29.81 "Hg
* Reported Apr 10 9:00 pm — Apr 25 9:00 pm, Liberia, Weather by CustomWeather, © 2017

Note: Actual official high and low records may vary slightly from our data, if they occured in-between our weather recording intervals... More about our weather records

Advertising

Liberia Weather History for the Previous 24 Hours

Scroll right to see more
 ConditionsComfort  
Time TempWeatherWind HumidityBarometerVisibility
9:00 pm
Tue, Apr 25
79 °FPartly cloudy.5 mph84%29.85 "HgN/A
8:00 pm79 °FPassing clouds.6 mph84%29.84 "HgN/A
7:00 pm81 °FPartly cloudy.3 mph84%29.82 "HgN/A
6:00 pm79 °FPartly cloudy.6 mph89%29.80 "HgN/A
5:00 pm79 °FLight rain. Broken clouds.12 mph89%29.76 "HgN/A
4:10 pm79 °FThunderstorms. Partly sunny.13 mph94%29.76 "HgN/A
4:05 pm88 °FThunderstorms. Scattered clouds.8 mph66%29.75 "HgN/A
4:00 pm90 °FScattered clouds.15 mph59%29.74 "HgN/A
3:00 pm91 °FPartly sunny.10 mph52%29.76 "HgN/A
2:00 pm91 °FBroken clouds.12 mph52%29.77 "HgN/A
1:00 pm93 °FScattered clouds.5 mph44%29.78 "HgN/A
12:00 pm99 °FScattered clouds.9 mph35%29.82 "HgN/A
11:00 am95 °FPassing clouds.8 mph39%29.84 "HgN/A
10:00 am95 °FPassing clouds.12 mph39%29.85 "HgN/A
9:00 am90 °FSunny.5 mph49%29.86 "Hg10 mi
8:00 am84 °FSunny.5 mph58%29.85 "Hg10 mi
7:00 am81 °FSunny.2 mph70%29.83 "Hg10 mi
6:00 am75 °FSunny.No wind78%29.81 "Hg10 mi
12:00 am79 °FClear.5 mph74%29.83 "Hg10 mi
11:00 pm
Mon, Apr 24
81 °FClear.3 mph66%29.84 "Hg10 mi
10:00 pm82 °FClear.6 mph62%29.85 "Hg10 mi
Weather by CustomWeather, © 2017

See weather overviewHow to use our weather pages